RYR81W LCPH-LMML

Flight info

Callsign RYR81W
Flight time N/A
Altitude 32000
Route GENOS M42 ALKIS DCT ROTAS DCT NIMAN DCT AGARI M978 GZO
Aircraft B738/M-SDE2E3FGHIRWXY/LB1

Departure

Time 2026-05-05 16:00
Airport Paphos International Airport (LCPH)

Arrival

Time N/A
Airport Malta International Airport (LMML)
Time Latitude Longitude Altitude Speed Heading
2026-05-05 15:23 34.71326 32.48748 49 ft 0 kts 155°
2026-05-05 15:55 34.71325 32.48749 49 ft 0 kts 155°
2026-05-05 15:55 34.71326 32.48748 49 ft 1 kts 155°
2026-05-05 15:55 34.71339 32.48741 49 ft 3 kts 155°
2026-05-05 15:55 34.71357 32.48731 49 ft 3 kts 155°
2026-05-05 15:56 34.71375 32.48721 49 ft 3 kts 155°
2026-05-05 15:56 34.71381 32.48718 49 ft 1 kts 155°
2026-05-05 15:56 34.71392 32.48711 49 ft 2 kts 155°
2026-05-05 15:56 34.71409 32.48702 49 ft 3 kts 155°
2026-05-05 15:57 34.71418 32.48701 49 ft 3 kts 113°
2026-05-05 15:57 34.71424 32.48723 49 ft 3 kts 69°
2026-05-05 15:57 34.71430 32.48744 49 ft 3 kts 69°
2026-05-05 15:57 34.71436 32.48763 49 ft 2 kts 69°
2026-05-05 15:58 34.71462 32.48839 49 ft 17 kts 62°
2026-05-05 15:58 34.71529 32.48959 49 ft 3 kts 37°
2026-05-05 15:58 34.71539 32.48968 49 ft 0 kts 37°
2026-05-05 15:59 34.71541 32.48971 49 ft 4 kts 37°
2026-05-05 15:59 34.71628 32.49003 49 ft 20 kts 333°
2026-05-05 15:59 34.71707 32.48833 49 ft 41 kts 292°
2026-05-05 16:00 34.71823 32.48462 49 ft 90 kts 289°
2026-05-05 16:00 34.72111 32.47507 59 ft 147 kts 291°
2026-05-05 16:00 34.72457 32.46302 661 ft 153 kts 289°
2026-05-05 16:00 34.72544 32.44967 1368 ft 165 kts 265°
2026-05-05 16:01 34.72232 32.43586 2109 ft 169 kts 258°
2026-05-05 16:01 34.71913 32.42148 2485 ft 190 kts 257°
2026-05-05 16:01 34.71545 32.40513 2777 ft 212 kts 257°
2026-05-05 16:01 34.71133 32.38708 3069 ft 232 kts 256°
2026-05-05 16:02 34.70673 32.36707 3534 ft 250 kts 256°
2026-05-05 16:02 34.70405 32.34616 4206 ft 255 kts 271°
2026-05-05 16:02 34.70604 32.32446 4982 ft 257 kts 285°
2026-05-05 16:02 34.71084 32.30339 5749 ft 261 kts 287°
2026-05-05 16:03 34.71578 32.28196 6506 ft 265 kts 287°
2026-05-05 16:03 34.72073 32.26029 7247 ft 268 kts 287°
2026-05-05 16:03 34.72572 32.23824 7981 ft 272 kts 287°
2026-05-05 16:03 34.73068 32.21619 8692 ft 276 kts 287°
2026-05-05 16:04 34.73580 32.19333 9413 ft 279 kts 287°
2026-05-05 16:04 34.74088 32.17054 10177 ft 280 kts 287°
2026-05-05 16:04 34.74601 32.14746 10811 ft 287 kts 287°
2026-05-05 16:04 34.75138 32.12330 11126 ft 305 kts 287°
2026-05-05 16:05 34.75707 32.09764 11414 ft 322 kts 287°
2026-05-05 16:05 34.76300 32.07092 11912 ft 331 kts 287°
2026-05-05 16:05 34.76901 32.04376 12611 ft 334 kts 287°
2026-05-05 16:05 34.77509 32.01633 13360 ft 336 kts 287°
2026-05-05 16:06 34.78116 31.98893 14087 ft 339 kts 287°
2026-05-05 16:06 34.78744 31.96066 14787 ft 342 kts 286°
2026-05-05 16:06 34.79362 31.93262 15537 ft 343 kts 286°
2026-05-05 16:06 34.79977 31.90450 16251 ft 346 kts 286°
2026-05-05 16:07 34.80595 31.87614 16955 ft 347 kts 286°
2026-05-05 16:07 34.81216 31.84759 17639 ft 350 kts 286°
2026-05-05 16:07 34.81833 31.81916 18301 ft 352 kts 286°
2026-05-05 16:07 34.82461 31.79008 18935 ft 354 kts 286°
2026-05-05 16:08 34.83090 31.76095 19545 ft 357 kts 286°
2026-05-05 16:08 34.83722 31.73160 20134 ft 360 kts 286°
2026-05-05 16:08 34.84359 31.70205 20721 ft 362 kts 285°
2026-05-05 16:08 34.85000 31.67223 21277 ft 365 kts 285°
2026-05-05 16:09 34.85642 31.64229 21836 ft 367 kts 285°
2026-05-05 16:09 34.86290 31.61205 22343 ft 371 kts 285°
2026-05-05 16:09 34.86940 31.58167 22879 ft 373 kts 285°
2026-05-05 16:09 34.87594 31.55109 23390 ft 375 kts 285°
2026-05-05 16:10 34.88274 31.51977 23889 ft 377 kts 285°
2026-05-05 16:10 34.88951 31.48923 24369 ft 379 kts 285°
2026-05-05 16:10 34.89632 31.45818 24822 ft 382 kts 285°
2026-05-05 16:10 34.90323 31.42644 25302 ft 384 kts 285°
2026-05-05 16:11 34.91005 31.39491 25726 ft 386 kts 285°
2026-05-05 16:11 34.93058 31.29931 26971 ft 392 kts 285°
2026-05-05 16:12 34.93749 31.26692 27362 ft 395 kts 285°
2026-05-05 16:12 34.95130 31.20208 28126 ft 398 kts 285°
2026-05-05 16:13 34.97225 31.10329 29172 ft 404 kts 285°
2026-05-05 16:13 34.97929 31.07002 29491 ft 406 kts 284°
2026-05-05 16:13 34.98634 31.03663 29832 ft 407 kts 284°
2026-05-05 16:14 35.00048 30.96947 30408 ft 411 kts 284°
2026-05-05 16:14 35.01467 30.90186 31070 ft 411 kts 284°
2026-05-05 16:15 35.02877 30.83455 31906 ft 408 kts 285°
2026-05-05 16:15 35.04271 30.76775 32632 ft 406 kts 285°
2026-05-05 16:16 35.05653 30.70134 33369 ft 402 kts 285°
2026-05-05 16:16 35.07024 30.63530 34036 ft 401 kts 285°
2026-05-05 16:17 35.08389 30.56932 34617 ft 401 kts 285°
2026-05-05 16:17 35.09072 30.53624 34907 ft 401 kts 285°
2026-05-05 16:18 35.10429 30.47034 35452 ft 400 kts 285°
2026-05-05 16:18 35.11109 30.43724 35719 ft 400 kts 285°
2026-05-05 16:18 35.12471 30.37132 36233 ft 400 kts 285°
2026-05-05 16:19 35.13162 30.33839 36482 ft 400 kts 285°
2026-05-05 16:19 35.13841 30.30543 36727 ft 400 kts 285°
2026-05-05 16:19 35.15182 30.23947 37201 ft 400 kts 285°
2026-05-05 16:20 35.16512 30.17351 37652 ft 400 kts 285°
2026-05-05 16:20 35.17842 30.10737 37969 ft 402 kts 285°
2026-05-05 16:22 35.20782 29.93933 37982 ft 404 kts 279°
2026-05-05 16:23 35.22291 29.80320 37981 ft 404 kts 280°
2026-05-05 16:23 35.23436 29.70111 37981 ft 404 kts 280°
2026-05-05 16:24 35.24197 29.63312 37981 ft 403 kts 280°
2026-05-05 16:25 35.25377 29.53135 37980 ft 403 kts 280°
2026-05-05 16:25 35.26562 29.42960 37980 ft 403 kts 280°
2026-05-05 16:26 35.28094 29.29429 37979 ft 403 kts 280°
2026-05-05 16:27 35.28859 29.22591 37979 ft 403 kts 280°
2026-05-05 16:27 35.29613 29.15803 37979 ft 403 kts 280°
2026-05-05 16:28 35.30364 29.08999 37981 ft 403 kts 280°
2026-05-05 16:28 35.31109 29.02210 37981 ft 403 kts 280°
2026-05-05 16:29 35.31851 28.95411 37980 ft 403 kts 280°
2026-05-05 16:29 35.32466 28.89746 37992 ft 403 kts 280°
2026-05-05 16:30 35.33204 28.82919 37998 ft 403 kts 280°
2026-05-05 16:30 35.33937 28.76102 37998 ft 403 kts 280°
2026-05-05 16:31 35.34665 28.69297 37990 ft 403 kts 280°
2026-05-05 16:31 35.35389 28.62487 37990 ft 403 kts 280°
2026-05-05 16:32 35.36110 28.55676 37990 ft 403 kts 280°
2026-05-05 16:32 35.36827 28.48859 37993 ft 403 kts 280°
2026-05-05 16:33 35.37545 28.41990 37994 ft 404 kts 280°
2026-05-05 16:33 35.38257 28.35150 37995 ft 405 kts 280°
2026-05-05 16:34 35.38964 28.28313 37992 ft 404 kts 280°
2026-05-05 16:34 35.39667 28.21478 37996 ft 405 kts 280°
2026-05-05 16:35 35.40367 28.14637 37996 ft 405 kts 280°
2026-05-05 16:35 35.41063 28.07792 38019 ft 405 kts 280°
2026-05-05 16:36 35.41755 28.00942 38032 ft 405 kts 280°
2026-05-05 16:36 35.42443 27.94097 38035 ft 404 kts 280°
2026-05-05 16:37 35.43128 27.87253 38036 ft 404 kts 280°
2026-05-05 16:37 35.43812 27.80366 38038 ft 404 kts 280°
2026-05-05 16:38 35.44482 27.73583 38041 ft 403 kts 280°
2026-05-05 16:38 35.45150 27.66787 38043 ft 403 kts 280°
2026-05-05 16:39 35.45820 27.59924 38046 ft 403 kts 280°
2026-05-05 16:39 35.46483 27.53089 38047 ft 403 kts 280°
2026-05-05 16:40 35.47141 27.46271 38048 ft 402 kts 280°
2026-05-05 16:40 35.47799 27.39408 38050 ft 402 kts 280°
2026-05-05 16:41 35.48449 27.32589 38051 ft 403 kts 280°
2026-05-05 16:41 35.49094 27.25778 38052 ft 401 kts 280°
2026-05-05 16:42 35.49735 27.18970 38052 ft 402 kts 280°
2026-05-05 16:42 35.50372 27.12167 38052 ft 401 kts 280°
2026-05-05 16:43 35.51005 27.05363 38053 ft 401 kts 280°
2026-05-05 16:43 35.51634 26.98557 38053 ft 401 kts 280°
2026-05-05 16:44 35.52257 26.91767 38054 ft 400 kts 280°
2026-05-05 16:44 35.52873 26.85018 38054 ft 400 kts 280°
2026-05-05 16:45 35.53492 26.78197 38055 ft 400 kts 280°
2026-05-05 16:45 35.54103 26.71414 38056 ft 399 kts 280°
2026-05-05 16:46 35.54709 26.64647 38058 ft 399 kts 281°
2026-05-05 16:46 35.55312 26.57873 38061 ft 399 kts 281°
2026-05-05 16:47 35.55915 26.51055 38062 ft 398 kts 281°
2026-05-05 16:47 35.56509 26.44293 38064 ft 398 kts 281°
2026-05-05 16:48 35.57099 26.37537 38066 ft 398 kts 281°
2026-05-05 16:48 35.57685 26.30777 38069 ft 398 kts 281°
2026-05-05 16:49 35.58267 26.24021 38071 ft 397 kts 281°
2026-05-05 16:49 35.58843 26.17280 38074 ft 397 kts 281°
2026-05-05 16:50 35.59418 26.10517 38076 ft 398 kts 281°
2026-05-05 16:50 35.59989 26.03759 38079 ft 397 kts 281°
2026-05-05 16:51 35.60554 25.97015 38082 ft 397 kts 281°
2026-05-05 16:51 35.61116 25.90262 38084 ft 397 kts 281°
2026-05-05 16:52 35.61674 25.83521 38087 ft 397 kts 281°
2026-05-05 16:52 35.62228 25.76771 38090 ft 397 kts 281°
2026-05-05 16:53 35.62783 25.69973 38092 ft 397 kts 281°
2026-05-05 16:53 35.63326 25.63273 38094 ft 398 kts 281°
2026-05-05 16:54 35.63870 25.56500 38096 ft 398 kts 281°
2026-05-05 16:54 35.64410 25.49742 38097 ft 397 kts 280°
2026-05-05 16:55 35.64947 25.42977 38099 ft 397 kts 280°
2026-05-05 16:55 35.65475 25.36270 38100 ft 398 kts 280°
2026-05-05 16:56 35.66002 25.29516 38101 ft 397 kts 280°
2026-05-05 16:56 35.66528 25.22743 38102 ft 397 kts 280°
2026-05-05 16:57 35.67052 25.15934 38102 ft 397 kts 280°
2026-05-05 16:57 35.67567 25.09198 38101 ft 398 kts 280°